GW1480 Weather Reports


Display with metric or nautical units.
time (UTC)temp
F
wind
direction
speed
MPH
gust
MPH
rain 1hr
in
rain 24hr
in
rain mn
in
humidity
%
barometer
mb
20260506001517 66 234 0.0 0.0 0.00 0.00 0.00 79 1011.8
20260506000919 67 236 0.0 0.0 0.00 0.00 0.00 78 1011.8
20260506000349 67 236 0.0 0.0 0.00 0.00 0.00 77 1011.8
20260505235739 68 240 0.0 0.0 0.00 0.00 0.00 75 1011.8
20260505235119 68 238 0.0 0.0 0.00 0.00 0.00 73 1011.8
20260505234527 68 233 0.0 0.0 0.00 0.00 0.00 74 1011.8
20260505233341 70 231 0.0 0.0 0.00 0.00 0.00 72 1011.8
20260505232713 70 256 0.0 0.0 0.00 0.00 0.00 71 1011.8
20260505232150 71 231 0.0 0.0 0.00 0.00 0.00 66 1011.8
20260505231552 72 99 0.0 0.0 0.00 0.00 0.00 65 1012.1
20260505230932 73 235 0.0 0.0 0.00 0.00 0.00 69 1012.1
20260505230345 74 212 0.0 0.0 0.00 0.00 0.00 55 1012.1
20260505225114 75 239 0.0 0.0 0.00 0.00 0.00 48 1011.8
20260505224513 75 112 0.0 0.0 0.00 0.00 0.00 46 1011.8
20260505223921 75 156 1.0 2.0 0.00 0.00 0.00 45 1011.8
20260505223312 75 70 2.0 2.0 0.00 0.00 0.00 45 1011.8
20260505222747 76 220 0.0 0.0 0.00 0.00 0.00 49 1011.8
20260505222114 76 305 1.0 5.0 0.00 0.00 0.00 44 1011.8
20260505221516 76 208 0.0 2.0 0.00 0.00 0.00 44 1012.1
20260505220313 77 223 1.0 5.0 0.00 0.00 0.00 43 1011.8
20260505215741 78 316 3.0 5.0 0.00 0.00 0.00 43 1011.8
20260505215149 78 219 3.0 5.0 0.00 0.00 0.00 44 1011.8
20260505214545 78 122 2.0 5.0 0.00 0.00 0.00 41 1011.8
20260505213941 78 227 0.0 0.0 0.00 0.00 0.00 42 1012.1
20260505213316 77 212 4.0 7.0 0.00 0.00 0.00 42 1011.8
20260505212742 77 52 0.0 0.0 0.00 0.00 0.00 43 1011.8
20260505212124 77 163 2.0 5.0 0.00 0.00 0.00 43 1011.8
20260505211527 78 77 3.0 7.0 0.00 0.00 0.00 43 1011.8
20260505210344 78 138 3.0 5.0 0.00 0.00 0.00 44 1012.5
20260505205752 78 85 4.0 7.0 0.00 0.00 0.00 42 1012.1
20260505205138 78 257 1.0 2.0 0.00 0.00 0.00 47 1012.1
20260505204543 78 25 1.0 2.0 0.00 0.00 0.00 44 1012.5
20260505203317 77 359 7.0 10.0 0.00 0.00 0.00 46 1012.8
20260505202754 77 340 6.0 7.0 0.00 0.00 0.00 44 1012.5
20260505202112 76 287 3.0 5.0 0.00 0.00 0.00 46 1012.8
20260505201532 76 19 0.0 2.0 0.00 0.00 0.00 46 1012.8
20260505200940 76 284 0.0 0.0 0.00 0.00 0.00 46 1012.8
20260505195709 76 7 4.0 7.0 0.00 0.00 0.00 46 1012.8
20260505194543 76 334 5.0 10.0 0.00 0.00 0.00 45 1013.2
20260505193940 76 73 3.0 5.0 0.00 0.00 0.00 45 1013.2
20260505193332 76 197 3.0 5.0 0.00 0.00 0.00 45 1013.5
20260505192115 76 37 7.0 10.0 0.00 0.00 0.00 45 1013.5
20260505190931 77 152 5.0 7.0 0.00 0.00 0.00 46 1013.5
20260505190336 77 2 2.0 2.0 0.00 0.00 0.00 46 1013.5
20260505185752 77 59 1.0 2.0 0.00 0.00 0.00 47 1013.5
20260505185140 77 355 4.0 5.0 0.00 0.00 0.00 46 1014.2
20260505184551 77 88 1.0 5.0 0.00 0.00 0.00 44 1013.8
20260505183341 76 219 2.0 2.0 0.00 0.00 0.00 45 1014.2
20260505181514 76 98 4.0 7.0 0.00 0.00 0.00 44 1014.2
20260505180926 76 31 2.0 5.0 0.00 0.00 0.00 46 1014.2
20260505180313 76 320 2.0 5.0 0.00 0.00 0.00 45 1014.5
20260505175713 76 117 4.0 5.0 0.00 0.00 0.00 45 1014.2
20260505175125 76 39 4.0 5.0 0.00 0.00 0.00 47 1014.2
20260505174525 76 52 6.0 10.0 0.00 0.00 0.00 46 1014.5
20260505173933 76 48 5.0 7.0 0.00 0.00 0.00 47 1014.5
20260505173350 76 4 2.0 5.0 0.00 0.00 0.00 48 1014.5
20260505172720 76 49 1.0 2.0 0.00 0.00 0.00 49 1014.5
20260505172131 76 48 7.0 12.0 0.00 0.00 0.00 46 1014.5
20260505171517 76 152 0.0 2.0 0.00 0.00 0.00 47 1014.5
20260505170939 76 210 4.0 10.0 0.00 0.00 0.00 47 1014.5
20260505170328 76 253 7.0 10.0 0.00 0.00 0.00 48 1014.5
20260505165708 76 199 0.0 2.0 0.00 0.00 0.00 48 1014.5
20260505165110 76 351 2.0 2.0 0.00 0.00 0.00 47 1014.2
20260505164512 76 324 4.0 7.0 0.00 0.00 0.00 47 1014.5
20260505163952 76 253 0.0 2.0 0.00 0.00 0.00 46 1014.5
20260505163316 76 111 8.0 12.0 0.00 0.00 0.00 47 1014.5
20260505162718 76 56 4.0 5.0 0.00 0.00 0.00 47 1014.5
20260505162148 76 7 4.0 7.0 0.00 0.00 0.00 47 1014.9
20260505161535 76 57 7.0 10.0 0.00 0.00 0.00 47 1014.9
20260505160921 76 129 2.0 5.0 0.00 0.00 0.00 48 1014.9
20260505160344 76 302 0.0 0.0 0.00 0.00 0.00 47 1014.9
20260505153319 75 210 2.0 5.0 0.00 0.00 0.00 49 1014.9
20260505152748 75 215 4.0 5.0 0.00 0.00 0.00 50 1014.5
20260505152114 75 338 4.0 10.0 0.00 0.00 0.00 49 1014.9
20260505151546 75 7 6.0 10.0 0.00 0.00 0.00 48 1014.9
20260505150942 74 355 5.0 7.0 0.00 0.00 0.00 52 1014.9
20260505150331 74 104 4.0 7.0 0.00 0.00 0.00 51 1014.9
20260505140322 72 0 6.0 12.0 0.00 0.00 0.00 52 1014.9
20260505124537 66 214 0.0 0.0 0.00 0.00 0.00 58 1014.9
20260505123916 64 184 0.0 0.0 0.00 0.00 0.00 61 1014.9
20260505123326 62 72 0.0 2.0 0.00 0.00 0.00 68 1014.9
20260505122715 61 100 3.0 5.0 0.00 0.00 0.00 71 1014.9
20260505122122 60 114 1.0 5.0 0.00 0.00 0.00 77 1014.9
20260505120935 59 170 0.0 0.0 0.00 0.00 0.00 83 1014.9
20260505120316 58 63 4.0 7.0 0.00 0.00 0.00 84 1014.5
20260505115721 58 101 3.0 5.0 0.00 0.00 0.00 85 1014.9
20260505115152 57 211 0.0 0.0 0.00 0.00 0.00 85 1014.9
20260505114514 57 221 1.0 2.0 0.00 0.00 0.00 83 1014.9
20260505113925 57 155 0.0 0.0 0.00 0.00 0.00 87 1014.5
20260505113317 57 205 0.0 0.0 0.00 0.00 0.00 86 1014.5
20260505112135 57 67 2.0 2.0 0.00 0.00 0.00 86 1014.2
20260505111538 57 189 0.0 2.0 0.00 0.00 0.00 85 1014.5
20260505110926 57 106 2.0 5.0 0.00 0.00 0.00 84 1014.5
20260505110324 57 135 0.0 2.0 0.00 0.00 0.00 85 1014.2
20260505101527 58 108 2.0 5.0 0.00 0.00 0.00 81 1014.2
20260505100942 58 182 3.0 7.0 0.00 0.00 0.00 78 1013.8
20260505100313 59 102 2.0 2.0 0.00 0.00 0.00 77 1013.8
20260505095739 58 209 0.0 0.0 0.00 0.00 0.00 77 1013.5
20260505095146 58 125 2.0 2.0 0.00 0.00 0.00 80 1013.5
20260505094528 58 49 4.0 5.0 0.00 0.00 0.00 74 1013.5
20260505093910 58 83 3.0 5.0 0.00 0.00 0.00 79 1013.5
20260505093331 58 120 3.0 5.0 0.00 0.00 0.00 79 1013.5
20260505092734 59 79 3.0 5.0 0.00 0.00 0.00 79 1013.5
20260505092112 59 175 2.0 5.0 0.00 0.00 0.00 79 1013.5
20260505091543 60 109 4.0 5.0 0.00 0.00 0.00 79 1013.2
20260505090932 60 214 1.0 2.0 0.00 0.00 0.00 79 1013.2
20260505090330 60 150 1.0 2.0 0.00 0.00 0.00 75 1013.5
20260505085725 61 80 4.0 7.0 0.00 0.00 0.00 74 1013.2
20260505085123 61 147 1.0 2.0 0.00 0.00 0.00 76 1012.8
20260505084548 62 97 4.0 5.0 0.00 0.00 0.00 73 1013.2
20260505083930 62 168 0.0 2.0 0.00 0.00 0.00 72 1013.2
20260505082713 62 109 3.0 5.0 0.00 0.00 0.00 72 1012.8
20260505081509 62 215 3.0 5.0 0.00 0.00 0.00 68 1013.2
20260505080952 62 98 1.0 5.0 0.00 0.00 0.00 73 1013.2
20260505080308 61 143 2.0 5.0 0.00 0.00 0.00 73 1012.8
20260505075729 61 79 2.0 5.0 0.00 0.00 0.00 70 1013.2
20260505075111 62 185 3.0 5.0 0.00 0.00 0.00 72 1013.2
20260505073939 61 68 4.0 7.0 0.00 0.00 0.00 75 1012.8
20260505073351 61 102 3.0 5.0 0.00 0.00 0.00 71 1012.8
20260505072150 61 108 4.0 7.0 0.00 0.00 0.00 67 1012.8
20260505070926 61 126 3.0 5.0 0.00 0.00 0.00 70 1012.8
20260505070310 60 99 3.0 5.0 0.00 0.00 0.00 73 1012.8
20260505065739 60 117 2.0 5.0 0.00 0.00 0.00 76 1012.8
20260505064531 58 172 3.0 5.0 0.00 0.00 0.00 69 1013.2
20260505063912 57 71 0.0 2.0 0.00 0.00 0.00 75 1012.8
20260505063352 56 158 3.0 5.0 0.00 0.00 0.00 82 1013.2
20260505062752 55 103 3.0 5.0 0.00 0.00 0.00 84 1012.8
20260505062120 55 83 4.0 5.0 0.00 0.00 0.00 88 1012.8
20260505060932 55 105 3.0 5.0 0.00 0.00 0.00 90 1012.8
20260505060347 55 258 0.0 2.0 0.00 0.00 0.00 91 1012.8
20260505055730 54 188 0.0 0.0 0.00 0.00 0.00 91 1012.8
20260505055120 54 198 0.0 0.0 0.00 0.00 0.00 91 1012.8
20260505054545 54 196 0.0 0.0 0.00 0.00 0.00 91 1012.8
20260505053930 54 135 0.0 0.0 0.00 0.00 0.00 91 1012.8
20260505053309 54 60 0.0 2.0 0.00 0.00 0.00 92 1012.8
20260505051537 54 205 0.0 0.0 0.00 0.00 0.00 92 1012.8
20260505050326 54 89 2.0 2.0 0.00 0.00 0.00 92 1012.8
20260505041526 55 159 1.0 2.0 0.00 0.00 0.00 91 1012.1
20260505040919 55 208 0.0 0.0 0.00 0.00 0.00 91 1012.1
20260505035138 56 205 0.0 0.0 0.00 0.00 0.01 91 1012.1
20260505034556 56 171 0.0 0.0 0.00 0.00 0.01 91 1012.1
20260505033913 56 179 0.0 0.0 0.00 0.00 0.01 91 1012.1
20260505033320 56 190 0.0 0.0 0.00 0.00 0.01 90 1012.1
20260505032719 56 198 0.0 0.0 0.00 0.00 0.01 91 1012.1
20260505032128 56 217 0.0 0.0 0.00 0.00 0.01 91 1012.1
20260505031514 56 189 0.0 0.0 0.00 0.00 0.01 91 1012.1
20260505030941 56 182 0.0 0.0 0.00 0.00 0.01 91 1012.1
20260505030344 57 181 0.0 0.0 0.00 0.00 0.01 91 1012.1
20260505025743 57 143 0.0 0.0 0.00 0.00 0.01 90 1012.1
20260505025129 57 180 0.0 0.0 0.00 0.00 0.01 90 1012.1
20260505024538 57 164 0.0 0.0 0.00 0.00 0.01 90 1011.8
20260505022123 58 192 0.0 0.0 0.00 0.00 0.01 89 1011.8
20260505021511 58 203 0.0 0.0 0.00 0.00 0.01 89 1011.8
20260505020926 58 219 0.0 0.0 0.00 0.00 0.01 89 1011.8
20260505020317 58 161 1.0 2.0 0.00 0.00 0.01 88 1011.8
20260505015154 59 117 0.0 2.0 0.00 0.00 0.01 88 1011.8
20260505014530 59 116 0.0 0.0 0.00 0.00 0.01 87 1011.8
20260505013918 60 238 0.0 0.0 0.00 0.00 0.01 86 1011.8
20260505013318 60 121 0.0 0.0 0.00 0.00 0.01 85 1011.8
20260505012711 61 166 0.0 0.0 0.00 0.00 0.01 85 1011.8
20260505012147 61 118 0.0 0.0 0.00 0.00 0.01 84 1011.8
20260505011536 62 175 0.0 0.0 0.00 0.00 0.01 83 1011.8
20260505010914 62 162 0.0 0.0 0.00 0.00 0.01 83 1011.8
20260505010331 62 156 0.0 0.0 0.00 0.00 0.01 82 1011.8
20260505005751 63 164 0.0 0.0 0.00 0.00 0.01 82 1011.5
20260505005121 64 207 0.0 0.0 0.00 0.00 0.01 82 1011.8
20260505004534 64 190 0.0 0.0 0.00 0.00 0.01 81 1011.5
20260505003929 65 148 0.0 0.0 0.00 0.00 0.01 80 1011.5
20260505003354 65 204 0.0 0.0 0.00 0.00 0.01 80 1011.5
20260505002111 67 201 0.0 0.0 0.00 0.00 0.01 77 1011.5